Regional Weather Roundup
Issued by NWS

Home | Current Version | Previous Version | Graphics & Text | Print | Product List | Glossary On
Versions: 1 2 3 4 5 6 7 8 9 10 11 12 13 14 15 16 17 18 19 20 21 22 23 24 25 26 27 28 29 30 31 32 33 34 35 36 37 38 39 40 41 42 43 44 45 46 47 48 49 50
516
ASUS45 KTFX 172310
RWRMT
MONTANA REGIONAL WEATHER ROUNDUP
NATIONAL WEATHER SERVICE GREAT FALLS MT
400 PM MST WED JAN 17 2018

NOTE: "FAIR" INDICATES FEW OR NO CLOUDS BELOW 12000 FEET WITH NO
SIGNIFICANT WEATHER AND/OR OBSTRUCTIONS TO VISIBILITY.

MTZ001>007-043-180000-
WEST OF THE DIVIDE

CITY           SKY/WX    TMP DP  RH WIND       PRES   REMARKS
KALISPELL      CLOUDY    29  27  92 S3        30.15S
MISSOULA       CLOUDY    30  26  85 CALM      30.17F
BUTTE          FAIR      29  20  69 CALM      30.19S
MULLAN PASS    PTSUNNY   29  27  92 VRB3      30.07F
ANACONDA         N/A     37  19  48 SE9       30.14S WCI  31
DEER LODGE       N/A     37  21  52 SW12      30.15S WCI  30
EUREKA           N/A     30  27  86 MISG      30.15R
HAMILTON         N/A     48  21  34 S13       30.15S
RONAN          FOG       27  27 100 CALM      30.17S VSB 0
$$

MTZ008-052>055-180000-
SOUTHWEST MONTANA

CITY           SKY/WX    TMP DP  RH WIND       PRES   REMARKS
BOZEMAN        FAIR      27  19  72 N3        30.20F
DILLON         FAIR      35  22  58 S7        30.21F WCI  29
ENNIS          MOCLDY    37  25  60 S20       30.25F WCI  27
W YELLOWSTONE  FAIR      27  19  74 CALM      30.33R
THREE FORKS      N/A     33  23  67 CALM      30.17F
$$

MTZ009-010-012-014-046-048-049-054-180000-
EAST SLOPES AND CENTRAL MONTANA

CITY           SKY/WX    TMP DP  RH WIND       PRES   REMARKS
CUT BANK       FAIR      44  19  36 SW15      29.96F
GREAT FALLS    FAIR      42  22  44 SW21G28   30.02S
MALMSTROM AFB  FAIR      42  25  52 SW24      30.03R
HELENA         FAIR      23  18  81 NW5       30.18R
AUGUSTA        FAIR      38  25  58 S12       30.00F WCI  31
BOWMANS CRNR   FAIR      35  23  62 S23G29    30.03F WCI  22
CHOTEAU          N/A     46  19  34 S13       30.00S
CONRAD           N/A     38  30  73 S12       30.00F WCI  30
FAIRFIELD      MOCLDY    40  22  47 S25G32    29.99F
POWER          MOCLDY    39  23  53 SW26      30.00F WCI  28
RAYNESFORD     FAIR      47  18  30 W5        30.03S
ULM            MOCLDY    42  23  45 SW15G22   30.05R
WHITE SULPHUR    N/A     32  21  64 S9        30.14S WCI  24
$$

MTZ011-013-016-021-045-047-050-051-180000-
NORTH CENTRAL MONTANA

CITY           SKY/WX    TMP DP  RH WIND       PRES   REMARKS
HAVRE          FAIR      30  22  72 SW10      30.00R WCI  21
LEWISTOWN      FAIR      38  21  50 SW16      30.05F WCI  29
N BAR RANCH    FAIR      36  19  51 CALM      30.08F
CHINOOK          N/A     28  21  74 E3        30.00F
DENTON         MOCLDY    40  24  54 MISG      29.99F
GEYSER         MOCLDY    42  23  46 S13       30.02F
GRASS RANGE    FAIR      43  20  40 S13       30.01F
STANFORD       FAIR      42  20  41 S13       30.04F
WINIFRED       FAIR      44  21  40 SW18      30.01F
$$

MTZ017>020-022>027-061-062-180000-
NORTHEAST MONTANA

CITY           SKY/WX    TMP DP  RH WIND       PRES   REMARKS
GLASGOW        FAIR      24  17  74 SE3       30.01F
GLENDIVE       FAIR      22  16  78 S15       30.08F WCI   9
JORDAN           N/A     34  24  67 W8        30.04F WCI  27
MALTA          CLEAR     18  14  86 CALM      30.02S
SIDNEY         FAIR      27  19  72 S13       30.06F WCI  16
WOLF POINT     FAIR      23  13  65 W3        30.05F
PLENTYWOOD       N/A     32  21  64 CALM      29.99S
POPLAR           N/A     25  16  68 CALM      30.05F
$$

MTZ028>42-056>058-180000-
SOUTHCENTRAL AND SOUTHEAST MONTANA

CITY           SKY/WX    TMP DP  RH WIND       PRES   REMARKS
BAKER          FAIR      28  21  75 W5        30.14S
BILLINGS       MOCLDY    38  21  50 SW18      30.12F WCI  28
LIVINGSTON     FAIR      43  26  51 SW32G41   30.13F
MILES CITY     FAIR      24  17  74 SE7       30.12F WCI  16
BIG TIMBER     CLEAR     41  25  52 W14G21    30.15F
FORSYTH          N/A     28  18  64 CALM      30.11F
HARLOWTON      MOCLDY    35  26  68 W13       30.10F WCI  27
LAUREL           N/A     39  21  48 SW20G25   30.14F WCI  30
ROUNDUP          N/A     42  21  43 S18       30.00F
$$

REGIONAL REPORTS...DAKOTAS

CITY           SKY/WX    TMP DP  RH WIND       PRES   REMARKS
WILLISTON      FAIR      31  22  69 S7        30.03F WCI  24
MINOT          FAIR      36  22  56 W16       29.94F WCI  26
DICKINSON      FAIR      33  22  63 W14       30.05F WCI  23
BEACH          FAIR      30  21  69 SW20G25   30.10F WCI  18
CROSBY         FAIR      28  21  74 SW21      29.94F WCI  15
TIOGA          FAIR      30  21  69 W16       29.99F WCI  19
WATFORD CITY   FAIR      32  23  69 SW13      30.03F WCI  22
BISMARCK       FAIR      37  25  61 W13       30.08S WCI  29
GRAND FORKS    FAIR      33  24  69 W12       29.91R WCI  24
FARGO          FAIR      32  23  69 SW16      30.00S WCI  21
BUFFALO SD       N/A     33  22  63 W10       30.09S WCI  25
RAPID CITY     FAIR      43  24  47 S6        30.21S
$$

REGIONAL REPORTS...WYOMING/IDAHO/WASHINGTON

CITY           SKY/WX    TMP DP  RH WIND       PRES   REMARKS
GILLETTE       FAIR      39  24  55 S9        30.19F
SHERIDAN       FAIR      37  22  54 S3        30.16F
BUFFALO WY     FAIR      37  20  50 S7        30.18F WCI  32
CODY           FAIR      26  17  68 NE5       30.22S
YELLOWSTONE LA   N/A     25  19  78 CALM      30.34R
IDAHO FALLS    FAIR      38  28  67 N3        30.36S
SALMON         CLOUDY    32  24  72 CALM      30.33F
BOISE          FAIR      50  34  54 SE7       30.24F
SPOKANE        CLOUDY    38  35  89 E12       30.04F WCI  30
$$

REGIONAL REPORTS...ALBERTA

CITY           SKY/WX    TMP DP  RH WIND       PRES   REMARKS
CALGARY        MOCLDY    34  21  60 SE2       29.79F
EDMONTON       CLEAR     36  19  51 S3        29.79F
FORT MCMURRAY  PTCLDY    39  32  75 SW8       29.68R
HIGH LEVEL     PTCLDY    28  25  86 S8        29.58S WCI  20
LETHBRIDGE     MOCLDY    36  28  75 S9        29.89F WCI  29
LLOYDMINSTER   PTCLDY    34  23  64 W10       29.80R WCI  26
MEDICINE HAT   MOCLDY    37  27  65 S18G25    29.90F WCI  27
ONEFOUR          N/A     25  18  74 E6          N/A  WCI  18
PEACE RIVER    MOCLDY    25  21  86 SW5       29.67F
PINCHER CREEK  MOCLDY    41  27  56 W23G30    29.91F
WATERTON GATE    N/A     43  21  42 SW18G33     N/A
$$

REGIONAL REPORTS...SASKATCHEWAN

CITY           SKY/WX    TMP DP  RH WIND       PRES   REMARKS
CORONACH         N/A     30  21  69 W16G23      N/A  WCI  19
CYPRESS HILLS    N/A     41   9  26 W16G24      N/A
ESTEVAN        PTCLDY    34  23  64 W20       29.90F WCI  22
MOOSE JAW        N/A     39  21  48 W20         N/A  WCI  30
PRINCE ALBERT  PTCLDY    28  23  80 W8        29.74R WCI  20
REGINA         PTCLDY    36  27  69 W17       29.85F WCI  25
ROCKGLEN         N/A     28  19  69 W13         N/A  WCI  18
SASKATOON      PTCLDY    36  28  75 W10       29.81R WCI  28
SWIFT CURRENT  CLEAR     34  23  64 W14       29.91S WCI  24
VAL MARIE        N/A     28  19  69 SE1         N/A
$$




USA.gov is the U.S. government's official web portal to all federal, state and local government web resources and services.